Tracking 31027 objects as of 19-Jul-2025
HD Live streaming from Space Station
objects crossing your sky now

ARIANE 5 R/B

Track ARIANE 5 R/B now!


NORAD ID: 36746
Int'l Code: 2010-032C
Perigee: 281.9 km
Apogee: 32,149.6 km
Inclination: 1.4 °
Period: 563.0 minutes
Semi major axis: 22586 km
RCS: 22.3476 m2 (large)
Launch date: June 26, 2010
Source: France (FR)
Launch site: FRENCH GUIANA (FRGUI)

Note: This is a ROCKET BODY
Your satellite tracking list
CZ-4C DEB
Track 1 satellite(s)




NASA's NSSDC Master Catalog

Two Line Element Set (TLE):
1 36746U 10032C   25199.03778485  .00002695  00000-0  98256-3 0  9995
2 36746   1.3632 153.9194 7054496   6.0348 359.0971  2.55753638132881
Source of the keplerian elements: AFSPC